[[{"header":{"parameterUnit":"m.s-1","parameterCategory":1,"la1":30.2991,"la2":30.254,"lo1":-89.0895,"lo2":-89.0444,"dy":0.0017,"dx":0.0017,"nx":28,"ny":28,"refTime":"2026-02-09T09:00:00:Z","depth":0,"parameterNumber":2,"parameterNumberName":"U-component_of_WINDS"},"data":[0,0,0,0,0,0,0,0,0,0,0,0,0,0,0,0,0,0,0,0,0,0,0,0,0,0,0,0,0,0,0,0,0,0,0,0,0,0,0,0,0,0,0,0,0,0,0,0,0,0,0,0,0,0,0,0,0,0,-0.503,-0.5031,0,-0.5061,-0.5061,-0.5062,-0.5072,-0.5072,-0.5072,-0.5072,-0.5104,-0.5104,-0.5105,0,0,0,0,0,0,0,0,0,0,0,0,0,-0.4981,-0.4982,-0.503,-0.5031,-0.5031,-0.5061,-0.5061,-0.5062,-0.5072,-0.5072,-0.5072,-0.5072,-0.5103,-0.5104,-0.5106,0,0,0,0,0,0,0,0,0,0,0,0,0,-0.5006,-0.4982,-0.503,-0.504,-0.5041,-0.5061,-0.5061,-0.5062,-0.5072,-0.5072,-0.5072,-0.5071,-0.5103,-0.5104,-0.5106,-0.5119,0,0,-0.511,-0.5111,0,0,0,0,0,0,0,0,-0.5005,-0.5008,-0.5038,-0.5039,-0.504,-0.5062,-0.5056,-0.5081,-0.5072,-0.506,-0.5072,-0.5071,-0.509,-0.5093,-0.5099,-0.512,-0.5122,-0.511,-0.5111,-0.5112,-0.5112,0,0,0,0,0,0,0,-0.5003,-0.5007,-0.5042,-0.5038,-0.504,-0.5043,-0.5046,-0.5061,-0.5076,-0.5061,-0.5062,-0.5065,-0.5091,-0.5097,-0.51,-0.5122,-0.511,-0.5112,-0.5112,-0.5113,-0.5157,-0.5157,0,0,0,0,0,0,-0.5,-0.5005,-0.5041,-0.5043,-0.5022,-0.5044,-0.5048,-0.5056,-0.5076,-0.5079,-0.5066,-0.5066,-0.5095,-0.5098,-0.5101,-0.5118,-0.5112,-0.5113,-0.5114,-0.5156,-0.5157,-0.5157,0,0,0,0,0,0,-0.4999,-0.5003,-0.504,-0.5025,-0.503,-0.5045,-0.5054,-0.5056,-0.5063,-0.5079,-0.5082,-0.507,-0.5095,-0.5099,-0.5114,-0.5119,-0.5114,-0.5115,-0.5156,-0.5156,-0.5157,-0.5152,0,0,0,0,0,0,-0.4997,-0.5002,-0.5007,-0.5025,-0.503,-0.5053,-0.5054,-0.5057,-0.5065,-0.5066,-0.5084,-0.5086,-0.5095,-0.5112,-0.5116,-0.5121,-0.5116,-0.5156,-0.5156,-0.5157,-0.5151,-0.5152,-0.5152,0,0,0,0,0,-0.4995,-0.5004,-0.5007,-0.5012,-0.5037,-0.5053,-0.5056,-0.5066,-0.5066,-0.5071,-0.5081,-0.5086,-0.5118,-0.5114,-0.5118,-0.5124,-0.5155,-0.5156,-0.5157,-0.5151,-0.5152,-0.5152,0,0,0,0,0,0,-0.4987,-0.5007,-0.501,-0.5025,-0.5037,-0.5055,-0.5062,-0.5066,-0.5079,-0.5079,-0.5091,-0.5095,-0.511,-0.5118,-0.5113,-0.5138,-0.5137,-0.5138,-0.5131,-0.5132,-0.5132,-0.513,-0.5118,0,0,0,0,0,-0.4987,-0.4998,-0.5015,-0.5027,-0.5033,-0.5046,-0.5054,-0.506,-0.5073,-0.5079,-0.509,-0.5103,-0.5116,-0.5125,-0.5138,-0.5153,-0.5157,-0.5159,-0.5159,-0.516,-0.5161,-0.517,-0.5171,-0.5159,-0.5159,-0.5159,0,0,-0.4987,-0.4999,-0.5006,-0.5025,-0.5036,-0.5048,-0.505,-0.5063,-0.5072,-0.5081,-0.5096,-0.5105,-0.512,-0.5136,-0.5144,-0.5144,-0.5165,-0.516,-0.516,-0.5161,-0.5171,-0.5172,-0.5173,-0.516,-0.5159,-0.5159,0,0,-0.4993,-0.5003,-0.5014,-0.5024,-0.504,-0.5049,-0.5051,-0.5068,-0.5075,-0.509,-0.5097,-0.5109,-0.5131,-0.5142,-0.515,-0.5161,-0.5166,-0.5165,-0.5167,-0.5176,-0.5177,-0.5178,-0.5182,-0.5183,-0.5166,-0.5166,-0.5166,0,-0.4991,-0.5009,-0.5019,-0.5031,-0.504,-0.5049,-0.506,-0.507,-0.5089,-0.5095,-0.5095,-0.5123,-0.5134,-0.5153,-0.5155,-0.5162,-0.5166,-0.5163,-0.5176,-0.5177,-0.5178,-0.5182,-0.5184,-0.5166,-0.5166,-0.5166,-0.5166,0,-0.5006,-0.5018,-0.5025,-0.5043,-0.5053,-0.5065,-0.5077,-0.5086,-0.5092,-0.5101,-0.5117,-0.5131,-0.5147,-0.5152,-0.5158,-0.5172,-0.5171,-0.5173,-0.5173,-0.5179,-0.5183,-0.5184,-0.5166,-0.5166,-0.5166,-0.5166,0,0,-0.5007,-0.5031,-0.5033,-0.5042,-0.506,-0.507,-0.5083,-0.5098,-0.5106,-0.5119,-0.513,-0.5149,-0.5151,-0.5161,-0.5168,-0.5176,-0.5184,-0.5177,-0.5178,-0.5178,-0.5201,-0.52,-0.5201,-0.5188,-0.5188,-0.5188,-0.52,0,-0.5015,-0.5037,-0.5047,-0.5065,-0.5077,-0.5086,-0.5097,-0.511,-0.5119,-0.5131,-0.5141,-0.5155,-0.5156,-0.5162,-0.517,-0.5182,-0.5189,-0.5181,-0.5199,-0.5199,-0.5194,-0.5203,-0.5202,-0.5212,-0.5202,-0.5202,-0.5202,0,-0.5028,-0.5041,-0.506,-0.5077,-0.5083,-0.5092,-0.5108,-0.5119,-0.5134,-0.514,-0.5151,-0.5158,-0.5172,-0.5171,-0.5191,-0.5185,-0.5193,-0.52,-0.5201,-0.5203,-0.5201,-0.5206,-0.5215,-0.5217,-0.5205,-0.5205,-0.5204,0,-0.5027,-0.5049,-0.5064,-0.5071,-0.5091,-0.5098,-0.5107,-0.5122,-0.5131,-0.5145,-0.5151,-0.5166,-0.5174,-0.5186,-0.5198,-0.5196,-0.5217,-0.5217,-0.5223,-0.5223,-0.5227,-0.5226,-0.5238,-0.5232,-0.5232,-0.5232,-0.5232,0,-0.5035,-0.5047,-0.5064,-0.5073,-0.5086,-0.5098,-0.5111,-0.5121,-0.5134,-0.5145,-0.5154,-0.5164,-0.5179,-0.5191,-0.52,-0.5216,-0.522,-0.5225,-0.5228,-0.5225,-0.5224,-0.523,-0.523,-0.5232,-0.5232,-0.5232,-0.5232,0,-0.5037,-0.5048,-0.5065,-0.5083,-0.5088,-0.5097,-0.5113,-0.5122,-0.5132,-0.5146,-0.515,-0.5166,-0.5181,-0.5194,-0.5214,-0.522,-0.5237,-0.5239,-0.5231,-0.5233,-0.5238,-0.5238,-0.5254,-0.5257,-0.5249,-0.5249,-0.5249,0,-0.5041,-0.505,-0.5069,-0.5078,-0.5086,-0.5099,-0.5109,-0.5121,-0.513,-0.5148,-0.5156,-0.5172,-0.5185,-0.5209,-0.5223,-0.5238,-0.5242,-0.5246,-0.5244,-0.5241,-0.5242,-0.5241,-0.5243,-0.5246,-0.5246,-0.5247,-0.5247,0,-0.5048,-0.5054,-0.5067,-0.5082,-0.5093,-0.5105,-0.5118,-0.5125,-0.5139,-0.515,-0.5166,-0.5176,-0.5197,-0.5213,-0.523,-0.524,-0.5246,-0.5247,-0.525,-0.5247,-0.5242,-0.5245,-0.5232,-0.5247,-0.5247,-0.5247,-0.5247,-0.5247,-0.5052,-0.506,-0.5075,-0.509,-0.5101,-0.5113,-0.5122,-0.5133,-0.5147,-0.5164,-0.5171,-0.5187,-0.5203,-0.5227,-0.5236,-0.525,-0.525,-0.5254,-0.5255,-0.5255,-0.5255,-0.524,-0.5253,-0.5253,-0.5253,-0.5253,-0.5253,0,-0.5059,-0.5069,-0.5083,-0.51,-0.5112,-0.5116,-0.5131,-0.5141,-0.5155,-0.5168,-0.5182,-0.52,-0.5216,-0.5231,-0.5247,-0.5255,-0.5258,-0.5259,-0.5259,-0.5261,-0.5253,-0.525,-0.5256,-0.5256,-0.5256,-0.5256,-0.5256,-0.5256,-0.5065,-0.508,-0.5087,-0.5108,-0.5118,-0.5134,-0.5142,-0.5154,-0.5165,-0.5185,-0.5198,-0.5208,-0.5222,-0.524,-0.5255,-0.5259,-0.5265,-0.5265,-0.527,-0.5262,-0.5262,-0.5261,-0.5258,-0.5266,-0.5266,-0.5276,-0.5276,-0.5276]},{"header":{"parameterUnit":"m.s-1","parameterCategory":1,"la1":30.2991,"la2":30.254,"lo1":-89.0895,"lo2":-89.0444,"dy":0.0017,"dx":0.0017,"nx":28,"ny":28,"refTime":"2026-02-09T09:00:00:Z","depth":0,"parameterNumber":3,"parameterNumberName":"V-component_of_WINDS"},"data":[0,0,0,0,0,0,0,0,0,0,0,0,0,0,0,0,0,0,0,0,0,0,0,0,0,0,0,0,0,0,0,0,0,0,0,0,0,0,0,0,0,0,0,0,0,0,0,0,0,0,0,0,0,0,0,0,0,0,2.4934,2.4935,0,2.4945,2.4945,2.4945,2.496,2.496,2.496,2.496,2.4968,2.4968,2.4968,0,0,0,0,0,0,0,0,0,0,0,0,0,2.4925,2.4925,2.4934,2.4935,2.4935,2.4945,2.4945,2.4945,2.496,2.496,2.496,2.4961,2.4968,2.4968,2.4968,0,0,0,0,0,0,0,0,0,0,0,0,0,2.4931,2.4925,2.4934,2.4943,2.4944,2.4945,2.4945,2.4945,2.496,2.496,2.496,2.4961,2.4968,2.4968,2.4968,2.496,0,0,2.4968,2.4968,0,0,0,0,0,0,0,0,2.4931,2.4932,2.4942,2.4943,2.4944,2.4952,2.4944,2.495,2.496,2.4954,2.496,2.4961,2.4962,2.4962,2.4963,2.496,2.4961,2.4968,2.4968,2.4968,2.4968,0,0,0,0,0,0,0,2.493,2.4931,2.4938,2.4942,2.4943,2.4946,2.4947,2.4946,2.4955,2.4954,2.4955,2.4956,2.4963,2.4963,2.4964,2.4961,2.4968,2.4968,2.4968,2.4968,2.4952,2.4952,0,0,0,0,0,0,2.4929,2.4931,2.4938,2.4939,2.4938,2.4946,2.4947,2.4949,2.4956,2.4957,2.4956,2.4957,2.4963,2.4964,2.4964,2.4956,2.4968,2.4968,2.4968,2.4952,2.4952,2.4952,0,0,0,0,0,0,2.4929,2.493,2.4938,2.4935,2.4936,2.4946,2.4947,2.4949,2.495,2.4957,2.4959,2.4955,2.4964,2.4964,2.4961,2.4956,2.4968,2.4968,2.4953,2.4952,2.4952,2.4938,0,0,0,0,0,0,2.4928,2.4929,2.4927,2.4935,2.4937,2.4935,2.4946,2.4948,2.495,2.4951,2.4957,2.4958,2.4964,2.4961,2.4961,2.4956,2.4968,2.4953,2.4953,2.4952,2.4939,2.4937,2.4936,0,0,0,0,0,2.4928,2.4922,2.4927,2.4927,2.4934,2.4935,2.4936,2.4944,2.4949,2.4947,2.4952,2.4958,2.4957,2.4961,2.4961,2.4956,2.4954,2.4953,2.4952,2.494,2.4938,2.4936,0,0,0,0,0,0,2.4911,2.4923,2.4928,2.4925,2.4929,2.4937,2.4934,2.4941,2.4943,2.4944,2.4953,2.4954,2.495,2.4952,2.4957,2.4949,2.4956,2.4955,2.4947,2.4945,2.4943,2.4942,2.4967,0,0,0,0,0,2.4907,2.4908,2.4918,2.4914,2.4916,2.4925,2.4926,2.4932,2.4936,2.4937,2.4942,2.4945,2.4945,2.4945,2.4946,2.494,2.4941,2.4936,2.4935,2.4933,2.4932,2.493,2.4928,2.4949,2.4949,2.4949,0,0,2.4899,2.4905,2.4905,2.4911,2.4915,2.4915,2.4926,2.4925,2.4926,2.4937,2.4935,2.4938,2.4942,2.4938,2.4936,2.494,2.4927,2.4932,2.4931,2.4931,2.4928,2.4926,2.4925,2.4948,2.4948,2.4948,0,0,2.4883,2.4889,2.4886,2.489,2.4897,2.4903,2.4902,2.491,2.4913,2.4912,2.492,2.492,2.4921,2.4923,2.4925,2.4912,2.4918,2.4912,2.4902,2.49,2.4898,2.4897,2.4892,2.4891,2.4911,2.4911,2.4911,0,2.4872,2.4873,2.4883,2.4883,2.4885,2.4897,2.4894,2.4897,2.4903,2.4904,2.4909,2.491,2.4914,2.491,2.4908,2.4908,2.4908,2.4911,2.4898,2.4896,2.4895,2.4891,2.4889,2.491,2.491,2.491,2.491,0,2.4859,2.486,2.4857,2.4864,2.4866,2.4864,2.4873,2.4874,2.488,2.4885,2.4884,2.4889,2.4891,2.4891,2.4896,2.4888,2.4891,2.4896,2.4904,2.4892,2.4889,2.4887,2.4909,2.4909,2.4909,2.491,0,0,2.4832,2.4846,2.4845,2.4848,2.4857,2.4857,2.4856,2.486,2.486,2.4864,2.4863,2.4864,2.487,2.4871,2.4877,2.4875,2.4865,2.4881,2.4881,2.4878,2.4857,2.4853,2.4851,2.4869,2.4869,2.4869,2.4857,0,2.4818,2.4818,2.4828,2.4825,2.4826,2.4838,2.4837,2.4841,2.4847,2.4848,2.4853,2.4854,2.4862,2.4863,2.4861,2.4866,2.4861,2.4867,2.4868,2.4868,2.4866,2.4849,2.4844,2.4832,2.4855,2.4855,2.4855,0,2.4802,2.4807,2.4804,2.4814,2.4815,2.4814,2.4818,2.4819,2.4825,2.4829,2.4832,2.4839,2.4838,2.4846,2.4844,2.4849,2.4849,2.4852,2.4852,2.4852,2.486,2.4848,2.4829,2.4827,2.4853,2.4853,2.4853,0,2.4783,2.4788,2.4788,2.4791,2.4802,2.4801,2.4805,2.4812,2.4814,2.4817,2.4819,2.4821,2.4823,2.4825,2.4833,2.4837,2.483,2.4839,2.4833,2.4833,2.4831,2.4831,2.4811,2.4831,2.4831,2.4832,2.4832,0,2.4767,2.4764,2.478,2.4779,2.4778,2.4789,2.4786,2.4792,2.4797,2.4798,2.4808,2.4808,2.4818,2.4819,2.4825,2.4823,2.4823,2.4826,2.4828,2.4825,2.4825,2.4826,2.4827,2.4831,2.4831,2.4831,2.4831,0,2.4745,2.4755,2.4755,2.4767,2.4769,2.4768,2.4777,2.4777,2.4783,2.4784,2.4784,2.4794,2.4796,2.4804,2.4807,2.4811,2.4807,2.481,2.4806,2.4807,2.4801,2.4801,2.4781,2.4779,2.48,2.48,2.48,0,2.4734,2.4733,2.4744,2.4746,2.4751,2.4753,2.4755,2.4766,2.4768,2.4776,2.4774,2.4777,2.478,2.4782,2.4789,2.4792,2.4795,2.4788,2.4795,2.4793,2.4795,2.4795,2.4795,2.4786,2.4786,2.4785,2.4785,0,2.4713,2.4718,2.4722,2.4728,2.4731,2.4736,2.4741,2.4741,2.4753,2.4755,2.4758,2.476,2.4765,2.4767,2.4771,2.4775,2.4782,2.4783,2.4782,2.4779,2.4777,2.4778,2.4801,2.4783,2.4783,2.4784,2.4784,2.4784,2.4696,2.4696,2.4705,2.4709,2.4714,2.4719,2.472,2.4727,2.473,2.4736,2.4742,2.4744,2.475,2.4756,2.476,2.4761,2.4765,2.4763,2.4763,2.4762,2.4761,2.4777,2.4762,2.4762,2.4762,2.4762,2.4762,0,2.4676,2.4682,2.4686,2.4694,2.4697,2.4705,2.4712,2.4713,2.4716,2.4721,2.4725,2.4728,2.4731,2.4739,2.4742,2.4742,2.4745,2.4742,2.4742,2.4743,2.4757,2.4758,2.474,2.474,2.474,2.474,2.474,2.474,2.4665,2.4666,2.4673,2.4677,2.4683,2.4686,2.4689,2.4694,2.4699,2.4703,2.4706,2.4711,2.4718,2.4722,2.4725,2.4727,2.4728,2.4724,2.4727,2.474,2.4742,2.4744,2.4745,2.4724,2.4724,2.4713,2.4713,2.4713]}]]